Location: Bargny
(49.1779°N, 2.9563°E)
Time: 08:27:56
(UTC+00:00)

Daily predictions for brighter satellites

Satellite Brightness Start Highest point End
(mag) Time Altitude Azimuth Time Altitude Azimuth Time Altitude Azimuth
Timation 2 Rocket 4.1 18:06:24 10° SSW 18:12:58 90° ESE 18:19:16 10° NNE
CZ-4 R/B 1.9 18:10:35 10° S 18:14:28 63° W 18:18:27 10° NNW
Cosmos 2219 3.8 18:10:14 10° S 18:15:26 37° ESE 18:20:39 10° NE
SJ-6B 4.4 18:12:36 10° ESE 18:15:29 19° ENE 18:18:22 10° NNE
Meteor 2-9 Rocket 4.2 18:10:47 10° S 18:16:31 82° E 18:22:07 10° NNE
Envisat 3.8 18:11:36 10° S 18:16:36 57° W 18:21:38 10° NNW
Cosmos 2297 Rocket 3.1 18:15:27 10° SSE 18:19:58 25° ESE 18:24:31 10° NE
Aureole 1 Rocket 4.2 18:20:34 10° NNW 18:25:26 47° WSW 18:29:09 10° S
Cosmos 2074 Rocket 4.3 18:19:39 10° NNW 18:25:53 74° W 18:32:04 10° S
USA 116 3.6 18:24:46 10° NNE 18:28:41 85° WNW 18:32:08 10° SSW
Lacrosse 5 rocket 2.2 18:31:09 10° S 18:34:07 24° SE 18:37:11 10° ENE
MOS 1 4.5 18:29:33 10° SE 18:35:06 55° ENE 18:40:39 10° N
In-Cosmos 22 4.4 18:30:49 10° N 18:36:02 49° ENE 18:41:21 10° SSE
Okean 1 Rocket 3.0 18:31:44 10° S 18:36:04 76° E 18:40:27 10° NNE
GENESIS II 4.4 18:32:40 10° NW 18:36:47 65° NE 18:40:49 10° SE
Cosmos 405 Rocket 3.6 18:33:55 10° SSE 18:37:03 27° E 18:40:13 10° NE
Cosmos 1461 3.9 18:33:44 10° WSW 18:37:35 45° NW 18:41:25 10° NNE
Cosmos 1025 Rocket 4.3 18:34:14 10° NNW 18:38:20 45° W 18:42:24 10° SSW
Cosmos 2341 Rocket 4.1 18:32:38 10° N 18:38:48 56° ENE 18:44:53 10° SSE
Cosmos 1190 Rocket 4.0 18:35:25 10° NNW 18:40:43 69° ENE 18:45:57 10° SSE
Cosmos 1939 Rocket 2.7 18:37:08 10° SSE 18:40:58 88° E 18:44:53 10° NNW
H-2A R/B 2.8 18:40:26 10° ESE 18:44:46 31° ENE 18:49:11 10° N
Cosmos 1437 Rocket 3.8 18:42:57 10° NNE 18:46:08 25° ENE 18:48:19 15° ESE
Cosmos 1674 4.0 18:43:37 10° NNE 18:46:35 22° ENE 18:48:21 16° ESE
Cosmos 614 Rocket 3.9 18:41:38 10° NNW 18:46:54 81° ENE 18:52:05 10° SSE
Cosmos 2237 Rocket 2.3 18:43:36 10° NNW 18:49:21 89° WSW 18:55:04 10° SSE
Cosmos 2333 Rocket 3.7 18:44:19 10° NW 18:49:35 39° WSW 18:54:49 10° S
NOSS 3-4 (A) 4.4 18:42:48 10° NW 18:49:40 62° SW 18:57:11 10° SSE
NOSS 3-4 (C) 4.3 18:42:54 10° NW 18:49:47 62° SW 18:57:18 10° SSE
Cosmos 1441 Rocket 3.7 18:46:13 10° SSW 18:49:59 63° WNW 18:53:43 10° N
Meteor 1-15 Rocket 4.4 18:44:37 10° S 18:50:14 54° E 18:55:58 10° NNE
Cosmos 2366 rocket 4.5 18:45:27 10° N 18:51:27 41° ENE 18:57:25 10° SE
Cosmos 2218 Rocket 4.4 18:46:15 10° N 18:52:20 44° ENE 18:58:19 10° SE
ADEOS Rocket 4.1 18:45:56 10° NNE 18:52:32 33° E 18:59:19 10° SSE
Cosmos 2154 Rocket 4.2 18:47:54 10° NNW 18:54:05 75° W 19:00:17 10° S
Meteor 1-24 Rocket 4.3 18:53:04 10° N 18:58:30 39° ENE 19:03:14 14° SE
Ariane Rocket 3.4 18:53:49 10° S 18:58:51 68° WSW 19:03:57 10° NNW
Cosmos 1980 4.0 18:53:51 10° NNW 18:59:30 72° WSW 19:05:07 10° SSE
SL-8 Rocket 4.1 18:53:47 10° N 18:59:54 57° ENE 19:05:56 10° SSE
Cosmos 389 Rocket 2.4 18:56:58 10° NNW 19:00:25 83° W 19:03:51 10° S
HJ-1C 3.7 18:57:05 10° S 19:00:27 71° WSW 19:03:50 10° NNW
FREGAT/IRIS 2.3 18:57:58 10° SSE 19:00:46 79° ENE 19:03:36 10° N
GP-B 3.8 18:57:08 10° N 19:01:31 57° W 19:05:51 10° SSW
Resurs 01 Rocket 2.8 19:02:49 20° E 19:04:31 25° ENE 19:08:08 10° N
CZ-2C R/B 3.8 19:00:19 10° NNE 19:04:39 48° E 19:08:55 10° S
SJ-11-01 4.2 19:00:18 10° SSE 19:05:01 72° ENE 19:09:47 10° N
EO 1 Delta rocket 4.2 18:59:35 10° SSE 19:05:54 80° ENE 19:11:01 10° N
Cosmos 1892 Rocket 3.5 19:03:32 10° N 19:08:02 81° E 19:12:26 10° SSE
Cosmos 1805 4.1 19:06:58 21° SE 19:08:38 29° E 19:12:02 10° NNE
Cosmos 407 Rocket 3.8 19:03:42 10° NNW 19:08:48 66° WSW 19:13:51 10° S
SAR-Lupe-2 3.4 19:06:51 10° NNE 19:10:26 69° ESE 19:13:59 10° S
USA 234 3.9 19:04:06 10° ENE 19:10:27 55° NNW 19:16:49 10° W
Cosmos 2056 Rocket 3.5 19:08:34 10° SSW 19:13:58 73° ESE 19:19:21 10° NNE
ASTEX 1 3.3 19:10:13 10° N 19:15:08 87° E 19:20:02 10° S
Cosmos 1420 Rocket 4.5 19:12:09 10° S 19:17:00 37° ESE 19:21:53 10° NE
Cosmos 1707 4.1 19:13:37 10° NNW 19:17:19 41° W 19:21:01 10° SSW
CZ-4C R/B 4.3 19:13:06 10° NW 19:18:01 23° N 19:23:35 10° NE
Cosmos 2219 Rocket 4.5 19:15:13 10° NW 19:19:34 23° WSW 19:23:53 10° SSW
KORONAS-FOTON 4.1 19:17:44 10° N 19:21:23 44° ENE 19:22:29 34° ESE
SL-16 R/B 2.2 19:16:42 10° NNW 19:22:24 70° ENE 19:26:04 23° SE
Cosmos 1140 Rocket 3.7 19:19:37 10° NNW 19:24:47 71° WSW 19:29:46 11° SSE
Cosmos 1624 Rocket 3.9 19:20:01 10° SSW 19:25:14 89° WNW 19:30:28 10° NNE
ISS -3.8 19:22:55 10° WSW 19:26:13 65° SSE 19:26:55 48° E
ERBS 2.3 19:23:10 10° WNW 19:26:33 75° SW 19:27:33 43° SE
RESURS DK-1 3.1 19:22:55 10° NNW 19:26:48 37° NE 19:27:47 32° E
SL-8 R/B 3.6 19:23:08 10° W 19:27:56 81° S 19:30:07 33° ESE
SL-08 RB Rocket 4.0 19:26:58 29° SE 19:28:57 48° ENE 19:33:27 10° N
Cosmos 1741 Rocket 4.4 19:23:57 10° NNW 19:29:05 45° ENE 19:31:10 30° ESE
Cosmos 1626 3.9 19:27:01 10° NNE 19:28:57 18° NE 19:28:57 18° NE
Okean 1-7 Rocket 4.1 19:25:43 10° NNW 19:30:07 61° W 19:34:32 10° S
Cosmos 2084 Rocket 3.4 19:26:08 10° SW 19:30:36 82° SE 19:35:04 10° NE
Cosmos 1954 Rocket 4.0 19:26:57 10° NNW 19:32:12 81° WSW 19:36:06 18° SSE
Meteor 2-5 Rocket 3.8 19:27:21 10° NNW 19:33:14 90° W 19:39:10 10° S
GEOS 3 Rocket 4.0 19:30:05 17° SSE 19:33:57 58° SW 19:39:02 10° NW
Spot 2 Rocket 4.3 19:34:39 29° E 19:35:39 32° ENE 19:40:05 10° N
Cosmos 1733 4.5 19:39:11 25° NE 19:39:11 25° NE 19:41:15 10° NNE
Cosmos 2082 3.7 19:33:03 10° S 19:38:41 60° ESE 19:44:19 10° NE
USA 186 2.8 19:36:58 14° S 19:39:40 48° W 19:43:00 10° NNW
Meteor 1-4 Rocket 4.0 19:37:36 10° NNW 19:40:52 36° W 19:44:05 10° SSW
Meteor 1-22 Rocket 4.4 19:34:57 10° S 19:40:55 60° E 19:46:54 10° NNE
Terra 4.1 19:42:20 10° NE 19:42:20 10° NE 19:42:40 10° NE
ARGOS 3.1 19:39:17 20° SSE 19:43:04 85° ENE 19:48:30 10° NNW
Cosmos 1544 Rocket 3.5 19:43:52 10° S 19:48:20 86° W 19:52:50 10° N
Cosmos 1455 Rocket 3.3 19:44:04 10° SSW 19:48:29 71° W 19:52:58 10° N
SL-14 R/B 4.0 19:45:46 10° N 19:48:59 38° NE 19:48:59 38° NE
SJ-6B 3.7 19:46:28 14° S 19:49:48 50° W 19:53:47 10° NNW
Cosmos 2227 Rocket 2.4 19:47:43 10° SW 19:53:22 75° WNW 19:59:05 10° NNE
SPOT 3 Rocket 4.1 19:49:57 11° S 19:54:49 56° W 19:59:55 10° NNW
Cosmos 1766 3.3 19:54:23 23° SSW 19:56:46 80° W 20:00:43 10° N
MetOp-A 4.0 19:55:16 38° SSE 19:57:22 76° ENE 20:02:44 10° NNW
CZ-2C R/B 3.1 19:55:55 38° SSE 19:58:01 75° ENE 20:03:39 10° N
Cosmos 2219 4.3 19:54:01 10° SW 19:59:31 45° NW 20:05:02 10° NNE
Cosmos 2297 Rocket 2.7 19:58:00 10° SW 20:03:37 61° WNW 20:09:14 10° NNE
Cosmos 1626 Rocket 3.6 20:01:45 10° NNW 20:06:05 73° W 20:07:10 48° SSW
Transit 2A Rocket 4.5 20:01:53 10° NW 20:06:18 75° WSW 20:06:47 66° S
Cosmos 1452 Rocket 3.3 20:02:52 10° SSW 20:08:06 80° ESE 20:13:23 10° NNE
Lacrosse 5 rocket 1.5 20:09:19 10° WSW 20:12:54 61° NW 20:12:54 61° NW
Cosmos 1825 Rocket 4.5 20:09:09 10° N 20:12:10 35° NE 20:12:10 35° NE
Cosmos 1674 4.3 20:18:51 10° NNW 20:22:11 31° W 20:23:12 26° WSW
Cosmos 1943 3.5 20:16:39 10° NNW 20:22:12 49° NE 20:22:30 49° ENE
H-2A R/B 3.0 20:21:02 20° SSW 20:24:03 41° W 20:28:52 10° NNW
Cosmos 1758 Rocket 4.3 20:20:12 10° N 20:23:21 44° NNE 20:23:21 44° NNE
Resurs 1-3 4.5 20:24:59 38° SW 20:26:05 46° W 20:30:20 10° NNW
Cosmos 1602 Rocket 4.1 20:23:50 10° NNW 20:28:05 53° W 20:28:32 50° WSW
Nadezhda 3 Rocket 3.8 20:30:13 58° SSE 20:31:28 77° E 20:37:42 10° NNE
ADEOS Rocket 3.9 20:31:04 10° N 20:38:22 66° WNW 20:46:02 10° SSW
Resurs 01 Rocket 2.5 20:40:23 42° WSW 20:40:48 43° W 20:45:04 10° NNW
Meteor 1-21 Rocket 4.2 20:35:23 10° N 20:41:21 80° ENE 20:41:30 79° ESE
Cosmos 1605 Rocket 4.4 20:35:53 10° N 20:41:34 46° ENE 20:41:34 46° ENE
Cosmos 1821 Rocket 3.9 20:38:32 10° NNW 20:44:42 80° W 20:45:40 64° SSW
Cosmos 1535 Rocket 4.4 20:44:44 10° N 20:51:10 79° E 20:51:16 79° E
Cosmos 2239 Rocket 4.5 20:45:36 10° NNW 20:51:53 79° W 20:52:38 68° SSW
USA 234 4.0 20:49:57 29° NE 20:52:51 45° N 20:59:01 10° WNW
ERS-1 Rocket 3.7 21:00:53 47° N 21:00:53 47° N 21:04:31 10° N
Cosmos 1603 3.9 20:56:28 10° NNW 21:01:45 68° W 21:01:45 68° W
ISS -0.4 20:59:45 10° W 20:59:49 10° W 20:59:49 10° W
SPOT 5 4.0 21:05:28 38° N 21:05:28 38° N 21:08:45 10° N
CZ-2C R/B 3.1 20:58:18 10° NNE 21:02:35 55° NNE 21:02:35 55° NNE
RESURS DK-1 4.4 21:01:13 10° NW 21:03:41 24° W 21:03:41 24° W
SL-16 R/B 4.1 21:01:44 10° NW 21:05:58 22° W 21:07:58 18° SW
CZ-4C R/B 3.7 21:02:16 10° NW 21:08:28 38° NNE 21:09:50 35° NE
Terra 3.5 21:21:13 28° N 21:21:13 28° N 21:23:35 10° N
SPOT 1/Viking Rocket 4.5 21:25:03 46° NNW 21:25:03 46° NNW 21:28:42 10° NNW
Cosmos 2263 Rocket 4.0 22:00:09 24° NNE 22:00:09 24° NNE 22:02:18 10° NNE
USA 234 4.1 22:37:18 46° NW 22:37:18 46° NW 22:41:51 10° NW
CZ-4C R/B 3.7 22:50:41 10° NW 22:55:00 43° NW 22:55:00 43° NW
Cosmos 2082 Rocket 4.2 23:15:46 10° NNW 23:18:11 24° N 23:18:11 24° N
